Regional Weather Roundup
Issued by NWS

Home | Current Version | Previous Version | Graphics & Text | Print | Product List | Glossary On
Versions: 1 2 3 4 5 6 7 8 9 10 11 12 13 14 15 16 17 18 19 20 21 22 23 24 25 26 27 28 29 30 31 32 33 34 35 36 37 38 39 40 41 42 43 44 45 46 47 48 49 50
000
ASUS43 KMKX 270423
RWRWI

WISCONSIN REGIONAL WEATHER ROUNDUP
NATIONAL WEATHER SERVICE MILWAUKEE/SULLIVAN WI
1100 PM CDT TUE MAY 26 2015

NOTE: "FAIR" INDICATES FEW OR NO CLOUDS BELOW 12,000 FEET WITH NO
SIGNIFICANT WEATHER AND/OR OBSTRUCTIONS TO VISIBILITY.

WIZ001-002-006>008-014>016-023>028-270500-
NORTHWEST WISCONSIN

CITY           SKY/WX    TMP DP  RH WIND       PRES   REMARKS
SUPERIOR ARPT  CLOUDY    51  50  97 CALM      29.79S
ASHLAND        LGT RAIN  52  52 100 CALM      29.78S
HAYWARD        LGT RAIN  54  52  93 N3        29.77R
SIREN          CLOUDY    55  55  98 CALM      29.80R
CUMBERLAND     DRIZZLE   54  54 100 NW3       29.78R
RICE LAKE      DRIZZLE   55  53  91 NW5       29.78R
CHETEK         CLOUDY    55  55  97 NW7       29.76R
LADYSMITH      RAIN      55  54  96 NW9       29.76R
EAU CLAIRE     CLOUDY    57  55  93 W6        29.76R
MENOMONIE      CLOUDY    58  58  99 W5        29.78R
NEW RICHMOND   CLOUDY    56  56 100 W3        29.80R
OSCEOLA        CLOUDY    56  56 100 NW5       29.82R
$$

WIZ003>005-009-010-017-018-270500-
NORTH CENTRAL WISCONSIN

CITY           SKY/WX    TMP DP  RH WIND       PRES   REMARKS
MANITOWISH WTR RAIN      55  55 100 N7        29.72S
ARBOR VITAE    RAIN      57  55  95 N10       29.70F
WOODRUFF       RAIN      57  55  95 N10       29.70F
RHINELANDER    CLOUDY    59  57  93 N5        29.67F
EAGLE RIVER    RAIN      58  58 100 N8        29.68F
LAND O LAKES   LGT RAIN  57  57  99 N8        29.71S
PHILLIPS       LGT RAIN  55  55 100 N5        29.71S
TOMAHAWK       CLOUDY    58  57  96 NW6       29.68S
MEDFORD        RAIN      58  57  97 NW9       29.69R
MERRILL        LGT RAIN  61  61 100 N7        29.66S
$$

WIZ029-030-035-036-043>047-270500-
CENTRAL WISCONSIN

CITY           SKY/WX    TMP DP  RH WIND       PRES   REMARKS
WAUSAU         CLOUDY    62  61  96 N6        29.61F
MOSINEE        CLOUDY    61  61 100 N7        29.63F
MARSHFIELD     HVY RAIN  59  57  93 NW20      29.67R FOG
STEVENS POINT  LGT RAIN  60  60  99 S7        29.62S
WAUPACA        CLOUDY    64  63  96 S12       29.64S FOG
WAUTOMA        NOT AVBL
WISC RAPIDS    LGT RAIN  61  58  90 W20G26    29.65R
CAMP DOUGLAS   NOT AVBL
$$

WIZ011>013-019>022-031-037>040-048>050-270500-
NORTHEAST WISCONSIN

CITY           SKY/WX    TMP DP  RH WIND       PRES   REMARKS
ANTIGO         CLOUDY    60  59  98 N8        29.64S
SHAWANO        CLOUDY    66  64  94 CALM      29.62S
OCONTO         PTCLDY    60  60 100 S3        29.61F
STURGEON BAY   PTCLDY    54  50  87 S10       29.67S
GREEN BAY      CLOUDY    66  59  78 SW14G22   29.65R
MANITOWOC      MOCLDY    66  59  77 SW15G24   29.69R
APPLETON       CLOUDY    64  57  77 SW18G24   29.67R
CLINTONVILLE   HVY RAIN  63  61  94 SW20G26   29.63R
OSHKOSH        CLOUDY    64  57  78 SW15G28   29.68R
$$

WIZ032>034-041-042-053>061-270500-
SOUTHWEST WISCONSIN

CITY           SKY/WX    TMP DP  RH WIND       PRES   REMARKS
LA CROSSE      CLOUDY    63  58  83 W8        29.77R
SPARTA         CLOUDY    60  59  95 W6        29.76R
VIROQUA        CLOUDY    59  59 100 W10       29.79R
BOSCOBEL       CLEAR     61  58  90 CALM      29.79R
PRAIRIE DU CHI PTCLDY    61  57  86 SW5       29.80R
PLATTEVILLE    CLEAR     60  58  96 SW5       29.81S
$$

WIZ056-057-062-063-064-067-068-270500-
SOUTH CENTRAL WISCONSIN

CITY           SKY/WX    TMP DP  RH WIND       PRES   REMARKS
REEDSBURG      MOCLDY    61  58  89 SW9       29.76R
BARABOO/DELLS  CLOUDY    61  56  83 SW9       29.76R
LONE ROCK      PTCLDY    62  59  90 W8        29.79R
MINERAL POINT  CLEAR     61  59  94 W6        29.81R
MADISON        PTCLDY    63  57  81 SW7       29.78R
MIDDLETON      PTCLDY    63  58  84 SW9       29.79R
WATERTOWN      PTCLDY   N/A N/A N/A SW13      29.78R
MONROE         MOCLDY    64  59  82 SW10      29.81S
JANESVILLE     CLOUDY    64  61  88 SW5       29.81R
$$

WIZ051-052-058>065-066-070>072-270500-
SOUTHEAST WISCONSIN

CITY           SKY/WX    TMP DP  RH WIND       PRES   REMARKS
MILWAUKEE      CLEAR     66  57  72 SW12      29.79R
WAUKESHA       CLEAR     63  55  77 SW12G17   29.80R
MILWAUKEE/TIMM CLEAR     64  55  72 SW13G20   29.78R
RACINE         CLEAR     66  58  75 SW10G17   29.82R
BURLINGTON     CLEAR     60  57  92 SW6       29.81S
KENOSHA        CLEAR     66  59  78 SW10      29.82R
FOND DU LAC    CLOUDY    64  57  78 SW16G26   29.72R
SHEBOYGAN      MOCLDY    64  57  78 SW18      29.71S
WEST BEND      CLEAR     63  55  77 SW15G23   29.75R
JUNEAU         MOCLDY    62  58  85 SW15G22   29.77R
$$

LSZ147-162-270500-
LAKE SUPERIOR

STATION/POSITION TIME  TEMP    WIND        PRES    WAVE
                       AIR SEA DIR/SP/G            HT/PER
                 (UTC) (F)     (DEG/KT/KT) (MB)    (FT/S)
W MID LAKE BUOY  0250   41 37   10/  6/  6 1080.0F   0
DEVILS ISLAND    0300   48     240/  2/  3 1085.0R
PORT WING        0240   51     180/  2/  3 1088.0R
SAXON HARBOR     0340   47        CALM     1081.0S
$$

LMZ867-665-643>646-270500-
LAKE MICHIGAN

STATION/POSITION TIME  TEMP    WIND        PRES    WAVE
                       AIR SEA DIR/SP/G            HT/PER
                 (UTC) (F)     (DEG/KT/KT) (MB)    (FT/S)
CHAMBERS ISLAND  0300   55     310/  1/  5 1044.0F
N MID LAKE BUOY  0250   44 37  180/  4/  6 1057.0S   1/ 5
NORTHPORT PIER   0300   49     150/  9/ 13 1047.0F
SISTER BAY       0303   50     150/ 13/ 19   N/A
KEWAUNEE LAKESHO 0300   48     180/ 12/ 13 1039.0R
SHEBOYGAN LAKESH 0300   66     230/ 23/ 27 1060.0R
PORT WASHINGTON  0300   67     240/ 10/ 20 1078.0
ATWATER BUOY     0300   65 45  220/ 17/ 21   N/A
MILWAUKEE LAKESH 0300   67     230/ 16/ 21   N/A
S MID LAKE BUOY  0250   47 38  200/ 14/ 14   N/A     2/ 4
$$

TC  - TEMPERATURE IN CELSIUS
VSB - VISIBILITY IN STATUTE MILES
WCI - WIND CHILL INDEX
HX  - HEAT INDEX




USA.gov is the U.S. government's official web portal to all federal, state and local government web resources and services.